Wind_Speed
29 29 29 30 29 29 28 29 31 32 30 29 30 31 30 30 29 29 29 30 29 27 26 26 25 27 28 27 26 23 26 24 25 26 27 27 29 30 34 35 35 33 33 31 31
30 30 31 31 30 29 27 27 30 30 29 30 30 31 33 32 31 29 27 23 23 22 20 19 22 24 23 22 19 17 20 11 15 16 17 18 19 25 30 30 31 36 36 35 35
29 30 31 31 31 30 28 27 27 27 28 29 30 30 30 28 23 24 22 23 23 22 22 23 22 22 22 18 16 18 17 11 15 13 15 14 18 22 24 23 24 25 32 35 34
29 29 31 33 32 30 31 29 27 26 25 25 25 27 28 27 27 27 27 26 26 25 25 25 25 22 23 22 22 18 21 19 21 17 17 19 24 26 25 19 29 25 23 22 35
34 32 33 31 32 33 32 30 30 29 29 27 28 29 31 33 30 29 32 30 30 30 29 27 27 25 25 26 24 23 27 26 27 23 24 21 25 31 28 20 31 28 27 24 21
36 35 35 34 32 30 30 30 32 31 30 30 30 30 33 41 35 34 34 33 32 31 29 27 30 28 29 30 30 29 32 33 33 30 27 23 28 33 32 27 34 32 32 33 28
37 39 35 35 33 30 29 31 32 30 31 31 32 31 35 46 42 39 34 36 36 32 30 28 27 25 28 32 32 32 32 38 43 38 37 31 31 43 39 36 36 39 34 32 35
40 43 41 38 39 37 34 33 33 30 27 30 31 30 33 43 42 42 39 39 39 37 36 33 30 30 31 33 30 32 29 33 41 41 38 34 30 44 41 38 39 40 40 35 32
46 43 41 42 42 41 41 38 37 35 31 27 29 31 34 43 46 46 45 45 45 40 37 39 37 33 37 44 35 37 28 30 35 50 38 34 30 36 40 41 39 43 46 40 37
51 50 43 46 46 47 46 41 38 38 38 35 35 34 34 37 43 45 47 46 44 45 45 42 36 36 46 52 44 42 37 34 35 49 37 30 27 32 38 39 42 44 45 45 41
56 53 54 52 50 48 47 48 52 46 42 42 41 42 42 44 47 50 50 49 46 45 46 43 42 45 55 53 48 45 42 41 45 47 37 30 26 32 40 43 48 47 47 44 46
56 58 62 58 56 55 53 57 56 52 50 53 55 53 54 52 50 53 54 51 49 50 50 44 42 52 49 50 51 47 49 47 45 50 44 35 28 31 36 42 44 51 52 52 50
55 59 60 62 62 61 63 67 60 50 50 55 59 53 54 57 53 56 57 58 57 59 61 54 53 56 54 52 56 58 57 54 49 53 51 46 28 29 37 42 44 46 51 53 53
67 65 54 62 62 70 68 72 70 72 61 48 59 62 66 63 61 65 62 57 60 60 60 58 68 63 62 64 67 54 69 56 53 49 43 43 28 29 39 50 53 48 46 52 56
69 62 74 75 70 67 62 74 70 78 67 63 57 63 75 77 75 72 69 76 71 77 74 72 69 73 77 76 71 72 79 67 70 58 46 41 47 46 50 44 52 55 56 57 59
75 75 73 81 85 74 79 70 72 72 61 75 75 71 68 73 80 74 71 79 79 79 77 81 84 76 77 80 84 78 80 82 73 72 67 58 60 42 49 51 50 53 56 60 62
84 86 77 76 85 86 87 85 78 75 68 75 74 79 79 74 71 79 88 86 80 83 87 79 88 89 85 86 87 91 91 84 85 83 78 85 80 64 67 63 67 72 70 71 73
86 87 83 83 86 90 93 95 88 79 81 82 83 90 82 83 81 88 89 81 88 86 94 93 80 91 92 93 94 93 95 98 100 100 96 97 96 72 76 78 77 79 84 91 101
90 90 90 95 89 95 99 93 88 86 89 92 91 91 92 94 95 89 90 94 88 96 95 100 94 87 94 95 98 100 100 101 106 107 107 100 100 99 97 84 88 97 97 106 101
101 96 97 103 100 101 105 94 98 94 99 98 97 99 95 102 101 100 103 92 94 97 107 109 108 97 99 102 103 105 107 105 110 118 116 118 107 102 100 93 93 99 103 106 108
111 111 108 108 107 107 107 104 101 100 106 105 109 114 108 106 107 109 114 107 104 110 110 115 119 107 112 113 108 115 111 116 124 118 128 126 118 96 107 96 105 106 113 112 110
127 123 118 118 122 121 119 118 114 106 115 116 119 114 116 117 126 121 124 125 122 124 124 122 128 133 124 125 124 124 124 118 130 131 131 136 140 115 110 105 113 113 116 121 122
134 134 130 132 133 133 133 132 132 128 125 126 127 127 138 137 141 140 142 137 136 134 128 133 137 141 144 133 134 132 132 133 133 137 139 144 149 129 126 123 118 117 114 115 114
147 149 154 157 152 153 147 143 148 139 138 140 141 144 141 146 144 147 146 141 139 141 146 147 152 150 147 140 140 139 135 131 138 143 144 146 145 139 139 134 128 130 127 129 128
155 156 154 156 159 159 162 158 153 150 157 158 157 157 159 160 160 160 159 158 162 162 159 157 156 153 159 158 152 145 146 137 135 142 145 144 146 145 147 154 146 144 141 136 141
165 168 171 167 166 163 160 160 159 153 158 157 164 160 154 158 154 150 152 155 156 154 152 151 149 152 151 153 156 156 148 143 144 137 148 152 145 143 139 128 132 129 126 121 113
170 160 156 161 162 161 158 164 161 161 155 150 142 137 132 134 136 135 133 135 133 131 129 132 132 128 126 128 132 127 118 124 122 123 132 134 124 118 114 113 114 117 118 120 116
Wind_Direction
265 265 265 267 268 270 269 271 272 277 278 275 278 278 280 279 281 284 285 291 293 294 293 294 296 297 295 296 294 291 284 283 281 281 284 282 283 283 280 277 274 268 268 270 273
270 270 271 269 270 271 272 273 272 274 277 279 280 281 282 281 284 287 287 290 292 289 288 294 295 296 301 305 294 292 283 293 275 287 290 290 294 283 281 282 292 275 270 268 268
269 271 272 273 273 274 275 275 271 270 270 274 280 282 282 279 279 276 278 281 283 287 288 291 291 296 297 296 294 290 280 267 278 283 287 296 292 292 294 298 290 277 266 265 268
269 273 273 273 271 275 270 271 272 271 269 270 270 275 275 273 273 275 275 278 285 285 283 285 286 293 288 287 288 281 285 283 284 280 289 286 290 292 289 306 298 303 309 292 268
269 273 277 278 276 277 273 274 273 275 274 276 280 280 280 275 282 279 280 285 287 289 290 288 287 288 285 284 284 275 284 284 284 286 281 285 290 287 293 299 295 296 302 305 296
264 269 269 273 277 279 283 280 280 282 284 282 279 278 281 277 282 279 282 284 283 282 282 286 290 294 287 287 287 278 278 281 282 281 281 284 287 286 293 301 296 295 293 295 295
265 273 273 268 273 271 281 283 288 287 289 286 288 287 285 282 282 282 282 281 280 280 279 287 288 295 296 294 295 288 288 289 287 286 282 283 288 288 292 296 292 294 291 290 294
271 271 271 272 271 266 277 276 279 281 290 287 290 289 290 287 287 290 288 287 286 286 282 283 283 283 283 281 279 288 297 292 295 289 288 290 290 286 291 293 293 291 290 292 290
278 275 272 274 271 273 276 271 272 272 278 284 287 285 288 287 292 290 290 290 287 286 285 287 287 286 280 279 278 279 289 280 285 287 290 297 300 285 287 286 284 284 288 292 290
275 276 271 277 276 278 276 276 278 273 278 282 280 281 278 281 292 293 289 290 292 288 286 283 288 292 282 281 286 278 273 274 276 279 294 297 291 289 292 295 289 286 288 293 289
269 273 276 274 277 279 281 281 283 278 280 280 284 282 274 278 285 288 290 289 290 291 285 286 286 287 284 290 286 281 273 269 272 273 281 291 284 284 289 288 288 289 294 292 293
271 267 270 274 276 276 276 278 280 277 282 279 282 281 279 281 282 282 281 285 288 289 290 290 296 288 288 291 287 286 288 280 270 269 274 275 282 277 281 283 285 293 295 294 292
265 272 267 270 271 271 272 273 275 274 283 286 280 279 280 281 278 280 278 277 278 286 288 294 291 288 287 291 287 290 291 289 282 273 278 273 271 278 274 280 283 288 292 295 294
269 264 266 271 277 268 270 270 267 271 272 277 276 275 275 278 277 275 278 279 282 281 286 293 287 289 285 285 289 300 288 292 284 277 273 280 272 263 271 278 282 282 285 288 291
272 274 263 269 273 267 278 267 273 267 272 276 277 273 275 279 275 273 280 276 275 281 283 288 287 288 287 288 291 288 292 291 291 298 281 280 268 279 278 280 278 283 284 284 281
270 279 274 265 270 268 267 275 272 276 276 272 269 274 274 271 270 270 273 280 279 277 283 282 283 289 288 287 287 290 290 289 290 293 297 289 280 292 290 292 284 279 276 279 278
272 277 276 272 268 267 272 268 276 285 281 272 268 278 276 267 276 272 269 275 276 271 279 291 282 283 289 287 286 290 291 291 291 287 291 297 298 300 301 286 293 288 285 275 282
272 272 280 272 269 268 275 269 282 292 280 278 271 273 278 281 279 279 278 280 280 282 277 280 288 280 286 284 284 287 291 291 287 295 299 295 304 304 292 287 289 291 291 293 292
273 272 277 277 275 275 275 277 277 290 282 281 271 276 277 283 285 282 278 273 281 281 281 279 282 285 282 285 284 286 288 289 283 285 287 293 295 290 300 290 279 288 289 291 284
278 273 276 276 273 273 280 285 279 276 282 280 277 280 280 283 279 284 284 281 283 284 285 283 285 284 281 286 292 287 279 283 285 280 281 288 287 286 289 284 282 275 272 276 285
275 275 272 273 274 277 281 283 278 274 280 281 283 281 283 284 279 281 286 282 284 285 283 285 285 285 287 287 283 287 284 276 280 279 279 287 286 281 284 281 278 268 268 276 279
269 273 270 269 274 277 281 276 275 275 280 276 277 279 280 279 281 280 283 282 283 284 285 283 284 286 285 286 286 289 287 280 278 287 285 288 291 293 283 281 270 267 274 282 289
274 273 269 270 275 273 275 275 272 274 274 274 273 275 279 277 280 282 282 281 283 282 284 285 284 284 286 285 287 285 284 286 284 286 287 289 291 287 285 279 276 275 269 272 271
271 273 273 272 274 273 275 272 277 273 272 274 272 273 275 276 278 277 279 278 277 279 281 279 281 281 282 284 284 283 281 280 282 284 285 284 285 282 281 281 274 274 271 269 270
271 272 272 271 273 272 274 275 276 274 274 274 275 276 276 274 275 276 274 273 276 278 277 277 276 278 278 279 279 279 279 279 276 277 277 277 277 276 276 276 275 275 274 272 268
273 273 275 276 274 275 276 279 279 279 279 279 280 281 279 278 277 277 275 274 275 277 277 277 277 277 275 275 275 275 278 276 275 272 270 272 276 278 277 277 276 277 279 278 274
273 272 271 273 273 273 275 275 275 276 276 277 276 274 273 273 274 274 275 275 275 277 277 275 275 275 277 276 274 274 277 274 274 274 273 272 273 279 279 279 277 277 278 279 277
Height
10812 10812 10811 10812 10812 10812 10812 10812 10812 10812 10812 10812 10811 10811 10809 10808 10808 10808 10806 10806 10804 10802 10801 10800 10798 10797 10795 10794 10792 10790 10787 10786 10786 10784 10784 10782 10780 10778 10775 10776 10777 10779 10777 10777 10777
10807 10807 10807 10806 10806 10807 10807 10807 10806 10806 10806 10806 10805 10805 10804 10803 10803 10802 10801 10800 10799 10797 10796 10796 10795 10793 10792 10790 10788 10786 10783 10783 10782 10782 10780 10779 10777 10774 10770 10772 10772 10772 10774 10774 10773
10801 10802 10802 10801 10801 10801 10801 10801 10801 10800 10800 10799 10799 10799 10797 10796 10798 10796 10795 10795 10794 10793 10792 10791 10790 10790 10788 10787 10786 10783 10781 10781 10779 10779 10778 10776 10774 10772 10768 10769 10765 10763 10765 10767 10769
10795 10795 10795 10795 10795 10795 10794 10795 10794 10794 10794 10794 10793 10793 10791 10789 10791 10792 10789 10789 10788 10788 10788 10786 10785 10785 10784 10783 10784 10781 10779 10778 10777 10777 10776 10773 10770 10767 10766 10769 10762 10763 10761 10762 10763
10789 10788 10789 10788 10788 10789 10789 10789 10789 10789 10789 10789 10789 10788 10785 10781 10785 10785 10782 10783 10782 10781 10782 10781 10780 10781 10779 10778 10779 10777 10774 10773 10772 10773 10772 10773 10768 10761 10762 10766 10759 10760 10759 10759 10759
10781 10782 10781 10781 10781 10782 10783 10784 10784 10784 10785 10784 10783 10783 10779 10770 10777 10778 10777 10776 10776 10775 10775 10776 10775 10775 10774 10772 10773 10772 10770 10767 10765 10767 10767 10770 10764 10758 10758 10762 10757 10757 10756 10754 10754
10773 10774 10774 10774 10774 10775 10776 10777 10777 10778 10778 10779 10779 10778 10775 10762 10766 10768 10771 10770 10769 10768 10768 10770 10770 10770 10768 10766 10766 10765 10766 10763 10757 10760 10760 10764 10761 10752 10754 10756 10755 10750 10750 10751 10748
10764 10764 10765 10766 10766 10767 10768 10769 10770 10771 10771 10771 10771 10771 10768 10757 10759 10759 10762 10762 10763 10763 10763 10762 10763 10762 10759 10756 10758 10757 10760 10757 10746 10748 10753 10758 10758 10742 10745 10746 10744 10741 10741 10744 10744
10754 10755 10756 10757 10757 10757 10760 10760 10762 10762 10763 10764 10764 10763 10761 10753 10749 10750 10752 10751 10752 10753 10754 10754 10755 10755 10750 10744 10752 10747 10755 10750 10745 10728 10748 10751 10752 10740 10736 10736 10736 10730 10727 10733 10734
10743 10744 10746 10746 10747 10748 10750 10751 10753 10753 10754 10754 10755 10754 10754 10748 10743 10739 10738 10739 10741 10742 10742 10742 10745 10744 10736 10732 10743 10740 10741 10743 10740 10721 10735 10744 10744 10739 10730 10729 10724 10722 10721 10720 10721
10733 10734 10735 10736 10736 10737 10739 10740 10742 10745 10744 10744 10746 10743 10742 10741 10738 10731 10726 10725 10729 10731 10730 10732 10734 10731 10722 10722 10724 10726 10729 10731 10728 10722 10730 10731 10736 10733 10725 10722 10715 10713 10711 10711 10708
10721 10722 10725 10726 10726 10727 10726 10728 10730 10732 10735 10733 10732 10735 10731 10729 10729 10721 10715 10715 10715 10718 10717 10722 10725 10714 10712 10710 10712 10713 10715 10719 10721 10714 10717 10722 10728 10724 10718 10712 10710 10703 10702 10703 10699
10711 10709 10711 10712 10713 10714 10713 10715 10716 10718 10724 10723 10719 10720 10715 10716 10715 10708 10704 10706 10707 10706 10701 10710 10711 10700 10699 10698 10694 10697 10697 10703 10708 10703 10707 10712 10720 10717 10709 10703 10701 10700 10694 10689 10688
10697 10697 10697 10699 10700 10700 10698 10701 10701 10702 10709 10715 10709 10706 10701 10700 10702 10695 10693 10693 10695 10696 10691 10699 10688 10686 10686 10686 10675 10689 10672 10684 10689 10692 10698 10699 10711 10709 10701 10694 10688 10686 10684 10680 10678
10679 10682 10682 10680 10682 10681 10682 10685 10685 10684 10699 10699 10698 10693 10686 10684 10684 10680 10676 10679 10681 10680 10678 10681 10675 10670 10670 10663 10662 10669 10662 10663 10668 10673 10685 10687 10685 10700 10696 10692 10685 10674 10667 10664 10660
10662 10664 10664 10662 10659 10661 10662 10666 10668 10670 10684 10680 10678 10673 10669 10665 10664 10662 10660 10663 10661 10662 10662 10661 10655 10658 10653 10647 10643 10640 10644 10640 10645 10648 10661 10661 10663 10691 10679 10678 10673 10669 10661 10652 10644
10641 10641 10643 10641 10639 10636 10639 10642 10648 10659 10662 10659 10653 10650 10650 10648 10646 10645 10645 10645 10642 10642 10641 10638 10637 10639 10632 10628 10623 10615 10616 10616 10616 10619 10632 10631 10641 10664 10657 10653 10651 10644 10638 10631 10623
10617 10619 10620 10617 10615 10612 10612 10615 10631 10642 10635 10630 10625 10625 10628 10626 10623 10622 10619 10623 10620 10616 10616 10615 10623 10619 10613 10605 10604 10599 10591 10587 10573 10588 10598 10599 10618 10642 10636 10633 10623 10617 10609 10604 10592
10591 10595 10600 10588 10588 10587 10585 10596 10614 10613 10606 10600 10593 10593 10602 10597 10585 10590 10592 10599 10597 10590 10580 10582 10600 10598 10592 10581 10580 10581 10570 10560 10548 10548 10551 10581 10590 10603 10612 10609 10598 10588 10578 10564 10561
10566 10571 10576 10563 10560 10558 10559 10584 10584 10582 10575 10568 10570 10567 10573 10574 10564 10559 10559 10572 10572 10564 10555 10545 10549 10572 10566 10562 10562 10549 10547 10541 10533 10513 10514 10533 10550 10569 10596 10580 10569 10558 10538 10535 10537
10541 10548 10551 10539 10532 10533 10544 10555 10554 10554 10547 10541 10541 10534 10542 10544 10531 10527 10527 10539 10546 10537 10528 10519 10514 10542 10534 10547 10535 10524 10518 10515 10503 10495 10482 10483 10497 10554 10551 10548 10535 10517 10501 10508 10515
10516 10522 10526 10517 10512 10515 10526 10527 10528 10538 10529 10516 10512 10514 10510 10512 10506 10505 10504 10504 10510 10505 10504 10495 10481 10483 10506 10510 10501 10496 10486 10479 10462 10466 10456 10444 10442 10493 10503 10507 10493 10465 10478 10482 10487
10486 10490 10489 10490 10494 10490 10494 10498 10496 10512 10508 10494 10490 10490 10488 10484 10470 10474 10477 10477 10474 10471 10465 10463 10456 10447 10449 10473 10472 10457 10454 10445 10438 10428 10424 10417 10415 10434 10433 10449 10451 10451 10449 10453 10456
10455 10458 10458 10451 10458 10457 10458 10464 10469 10472 10468 10455 10452 10453 10461 10451 10450 10442 10446 10438 10439 10439 10436 10430 10423 10423 10421 10421 10430 10421 10417 10418 10411 10403 10396 10385 10380 10394 10395 10398 10406 10414 10421 10420 10416
10416 10417 10419 10422 10421 10416 10416 10423 10434 10434 10421 10418 10413 10416 10412 10408 10414 10413 10412 10410 10408 10405 10404 10394 10392 10388 10392 10400 10387 10379 10382 10388 10395 10381 10354 10357 10353 10349 10362 10364 10353 10354 10360 10376 10380
10376 10372 10380 10384 10381 10381 10379 10381 10377 10385 10366 10376 10360 10368 10358 10353 10353 10355 10359 10361 10361 10360 10359 10354 10346 10345 10351 10361 10337 10334 10348 10363 10351 10347 10325 10323 10324 10320 10319 10314 10312 10309 10306 10313 10324
10336 10335 10336 10345 10345 10340 10346 10340 10337 10338 10332 10325 10326 10318 10322 10315 10311 10309 10312 10316 10316 10319 10318 10312 10306 10302 10301 10310 10291 10295 10332 10307 10304 10304 10287 10284 10280 10279 10276 10277 10276 10274 10272 10272 10283